SCP
0 0 0 0 0 0 0 0 -0 -0 -0 -0 -0 -0 -0 0 0 0 0 0 0 0 0 0 0 0 0 0 0 0 0 0 0 0 0 0 0 0 0 0 0 0 0 0 0 0 0 0 0
0 0 0 0 0 0 0 0 0 0 0 0 0 0 0 0 0 0 0 0 0 0 0 0 0 0 0 0 0 0 0 0 0 0 0 0 0 0 0 0 0 0 0 0 0 0 0 0 0
0 0 -0 0 0 0 0 0 0 0 0 0 0 0 0 0 0 0 0 0 0 0 0 0 0 0 0 0 0 0 0 0 0 0 0 0 0 0 0 0 0 0 0 0 0 0 0 0 0
0 -0 -0 0 0 0 0 0 0 0 0 0 0 0 0 0 0 0 0 0 0 0 0 0 0 0 0 0 0 0 0 0 0 0 0 0 0 0 0 0 0 0 0 0 0 0 0 0 0
-0 -0 0 0 0 0 0 0 0 0 0 0 0 0 0 0 0 0 0 0 0 0 0 0 0 0 0 0 0 0 0 0 0 0 0 0 0 0 0 0 0 0 0 0 0 0 0 0 0
0 0 0 0 0 0 0 0 0 0 0 0 0 0 0 0 0 0 0 0 0 0 0 0 0 0 0 0 0 0 0 0 0 0 0 0 0 0 0 0 0 0 0 0 0 0 0 0 0
0 0 0 0 0 0 0 0 0 0 0 0 0 0 0 0 0 0 0 0 0 0 0 0 0 0 0 0 0 0 0 0 0 0 0 0 0 0 0 0 0 0 0 0 0 0 0 0 0
0 0 0 0 0 0 0 0 0 0 0 0 0 0 0 0 0 0 0 0 0 0 0 0 0 0 0 0 0 0 0 0 0 0 0 0 0 0 0 0 0 0 0 0 0 0 0 0 0
0 0 0 0 0 0 0 0 0 0 0 1 1 1 1 1 1 0 0 0 0 0 0 0 0 0 0 0 0 0 0 0 0 0 0 0 0 0 0 0 0 0 0 0 0 0 0 0 0
0 0 0 0 0 0 0 0 0 0 1 1 1 1 1 1 1 1 0 0 0 0 0 0 0 0 0 0 0 0 0 0 0 0 1 1 1 1 1 1 1 0 0 0 0 0 0 0 0
0 0 0 0 0 0 0 0 0 1 1 1 1 1 1 1 1 1 1 0 0 0 0 0 0 0 0 0 0 1 1 1 1 1 1 1 1 1 1 1 1 1 1 1 1 1 1 0 0
0 0 0 0 0 0 0 0 1 1 1 1 1 1 1 1 1 1 1 1 0 0 0 0 0 0 0 0 1 1 1 1 1 1 1 1 1 1 1 1 1 1 1 1 1 1 1 1 1
0 0 0 0 0 0 0 0 1 1 1 1 1 1 1 1 1 1 1 1 1 0 0 0 0 0 1 1 1 1 1 1 1 1 1 1 1 1 1 1 1 1 1 1 1 1 1 1 1
0 0 0 0 0 0 0 1 1 1 1 1 1 1 1 1 1 1 1 1 1 1 1 1 1 1 1 1 1 1 1 1 1 1 1 1 1 1 1 1 1 1 1 1 1 1 1 1 1
0 0 0 0 0 0 0 0 1 1 1 1 1 1 1 1 1 1 1 1 1 1 1 1 1 1 1 1 1 1 1 1 1 0 0 0 1 1 1 1 1 1 1 1 1 1 1 1 1
0 0 0 0 0 0 0 0 1 1 1 1 1 1 1 1 1 1 1 1 1 1 1 1 1 1 1 1 0 0 0 0 0 0 0 0 0 0 0 1 1 0 0 0 0 0 0 0 0
0 0 0 0 0 0 0 0 1 1 1 1 1 1 1 1 1 1 1 1 1 1 1 1 0 0 0 0 0 0 0 0 0 0 0 0 0 0 0 0 0 0 0 0 0 0 0 0 0
0 0 0 0 0 0 0 0 0 1 1 1 1 1 1 1 1 1 1 1 0 0 0 0 0 0 0 0 0 0 0 0 0 0 0 0 0 0 0 0 0 0 0 0 0 0 0 0 0
0 0 0 0 0 0 0 0 0 1 1 1 1 1 1 1 0 0 0 0 0 0 0 0 0 0 0 0 0 0 0 0 0 0 0 0 0 0 0 0 0 0 0 0 0 0 0 0 0
0 0 0 0 0 0 0 0 0 0 0 0 0 0 0 0 0 0 0 0 0 0 0 0 0 0 0 0 0 0 0 0 0 0 0 0 0 0 0 0 0 0 0 0 0 0 0 0 0
0 0 0 0 0 0 0 0 0 0 0 0 0 0 0 0 0 0 0 0 0 0 0 0 0 0 0 0 0 0 0 0 0 0 0 0 0 0 0 0 0 0 0 0 0 0 0 0 0
0 0 0 0 0 0 0 0 0 0 0 0 0 0 0 0 0 0 0 0 0 0 0 0 0 0 0 0 0 0 0 0 0 0 0 0 0 0 0 0 0 0 0 0 0 0 0 0 0
0 0 0 0 0 0 0 0 0 0 0 0 0 0 0 0 0 0 0 0 0 0 0 0 0 0 1 0 0 0 0 0 0 0 0 0 0 0 0 0 0 0 0 0 0 0 0 0 0
0 0 0 0 0 0 0 0 0 0 0 0 0 0 0 0 0 0 0 0 0 0 0 0 0 1 1 0 0 0 0 0 0 0 0 0 0 0 0 0 0 0 0 0 0 0 0 0 0
0 0 0 0 0 0 0 0 0 0 0 0 0 0 0 0 0 0 0 0 0 0 0 0 0 0 0 0 0 0 0 0 0 0 0 0 0 0 0 0 0 0 0 0 0 0 0 0 0
0 0 0 0 0 0 0 0 0 0 0 0 0 0 0 0 0 0 0 0 0 0 0 0 0 0 0 0 0 0 0 0 0 0 0 0 0 0 0 0 0 0 0 0 0 0 0 0 0
0 0 0 0 0 0 0 0 0 0 0 0 0 0 0 0 0 0 0 0 0 0 0 0 0 0 0 0 0 0 0 0 0 0 0 0 0 0 0 0 0 0 0 0 0 0 0 0 0
0 0 0 0 0 0 0 0 0 0 0 0 0 0 0 0 0 0 0 0 0 0 0 0 0 0 0 0 0 0 0 0 0 0 0 0 0 0 0 0 0 0 0 0 0 0 0 0 0
0 0 0 0 0 0 0 0 0 0 0 0 0 0 0 0 0 0 0 0 0 0 0 0 0 0 0 0 0 0 0 0 0 0 0 0 0 0 0 0 0 0 0 0 0 0 0 0 0
0 0 0 0 0 0 0 0 0 0 0 0 0 0 0 0 0 0 0 0 0 0 0 0 0 0 0 0 0 0 0 0 0 0 0 0 0 0 0 0 0 0 0 0 0 0 0 0 0
Wind_Speed
13 11 7 5 7 6 3 5 4 5 5 6 6 5 6 8 6 7 8 13 16 17 18 17 13 12 11 11 11 12 12 12 13 12 12 12 11 10 9 9 7 7 6 6 6 6 7 7 8
11 8 6 6 7 2 5 5 5 6 3 3 4 5 7 9 8 9 10 13 17 17 17 16 15 12 12 11 11 12 12 12 12 12 11 11 10 9 9 8 7 6 6 6 6 6 6 7 7
9 7 6 6 4 3 4 6 6 4 2 2 4 6 6 8 7 6 10 16 16 15 15 16 16 13 12 12 11 11 11 11 11 11 10 10 9 8 8 7 6 5 5 5 5 5 5 5 6
7 7 6 8 2 3 4 6 4 1 4 3 5 9 8 8 4 8 14 16 16 15 14 17 15 14 13 12 12 11 11 11 10 10 9 8 8 7 7 6 5 5 5 5 4 4 4 4 4
7 6 8 8 1 3 3 5 2 1 4 4 5 9 10 7 7 12 14 15 15 14 14 17 14 14 12 12 11 11 11 10 10 9 9 8 7 6 6 5 5 4 5 5 4 4 4 4 4
6 6 9 6 2 2 4 4 2 5 6 6 7 10 9 7 10 11 12 13 14 13 13 15 14 13 12 11 11 11 10 10 9 9 8 8 7 6 5 5 5 4 4 5 5 5 5 5 5
7 7 8 5 1 2 5 4 4 5 7 6 5 8 10 9 10 9 10 9 11 12 12 12 13 12 12 10 10 10 9 9 9 8 8 7 7 6 6 6 6 5 5 5 6 6 6 6 6
6 7 8 6 3 2 4 4 4 4 7 5 3 6 10 12 11 11 10 9 10 10 10 10 10 10 10 11 10 9 8 8 7 7 7 7 8 8 8 9 8 7 6 6 7 7 7 8 8
6 8 7 2 2 2 3 3 4 4 7 6 6 8 14 16 13 12 11 10 10 9 8 8 9 8 8 8 9 9 8 7 7 7 7 7 7 7 8 8 4 6 7 7 8 8 9 9 10
6 7 2 3 5 5 3 2 1 5 8 9 10 13 16 15 13 12 12 12 11 10 8 6 6 6 5 4 5 5 5 5 5 3 5 5 3 3 5 2 4 6 7 8 8 8 9 11 8
5 5 5 4 5 6 3 0 1 4 6 6 10 14 14 14 12 11 10 10 10 9 8 8 6 5 5 3 3 2 2 2 4 4 4 3 2 3 4 2 3 5 7 6 6 7 7 7 5
6 5 6 7 6 5 2 2 3 4 6 6 9 12 12 12 10 10 10 10 9 8 8 7 6 5 3 2 2 2 2 2 2 2 3 3 2 2 2 2 3 3 3 4 4 3 6 7 7
7 5 4 4 3 2 2 4 5 8 8 8 10 10 10 9 9 8 8 8 8 8 7 6 4 4 3 3 2 2 1 1 1 1 2 3 2 3 3 3 3 4 4 4 4 5 6 6 7
4 5 4 3 0 2 4 6 5 7 8 8 9 8 8 7 7 7 7 7 7 7 6 5 5 4 3 3 2 1 1 1 1 2 2 2 2 3 3 4 3 4 4 4 4 5 5 5 5
6 6 5 3 2 3 5 7 6 7 8 9 8 6 6 6 6 6 6 7 7 7 6 6 5 4 3 3 3 2 1 0 1 1 2 2 2 2 2 3 3 3 3 3 4 5 5 5 6
7 8 5 5 2 4 8 6 9 6 7 8 8 7 6 6 5 5 6 6 6 6 6 5 4 5 4 2 1 1 0 1 1 0 1 1 2 2 2 2 2 2 3 3 3 5 5 5 6
7 4 1 5 2 3 7 4 9 6 6 7 7 7 7 7 6 6 5 5 5 6 6 6 5 5 4 3 2 1 1 1 1 0 1 2 2 2 3 3 2 4 4 4 5 4 5 6 6
5 5 2 1 3 3 4 5 7 6 5 6 7 7 7 7 6 6 5 5 5 5 5 5 5 5 4 4 3 1 1 1 0 1 1 1 1 2 3 3 2 5 5 4 4 5 5 6 6
7 7 4 4 1 3 3 5 7 6 5 5 6 7 7 7 8 7 6 6 6 6 6 5 5 5 4 3 2 2 2 1 1 1 1 0 2 2 3 5 3 5 5 5 7 6 7 7 5
6 5 0 4 2 2 3 5 6 6 5 4 5 7 7 7 8 8 7 7 7 6 6 5 5 5 4 2 1 1 1 2 1 1 1 1 2 3 4 4 6 5 5 6 6 6 7 7 6
4 4 2 2 4 3 4 6 7 7 6 6 6 7 8 8 9 9 8 8 7 7 7 5 5 5 4 3 3 2 3 3 3 2 2 2 3 4 4 5 6 5 8 6 6 7 8 8 8
2 2 1 4 6 3 3 2 6 7 8 9 8 9 9 9 9 9 9 9 8 8 7 6 6 6 5 5 4 4 4 4 4 3 3 3 4 5 5 6 6 6 8 6 8 8 7 8 9
3 2 3 4 3 2 2 3 6 7 9 10 10 11 10 10 10 9 9 9 8 8 7 7 7 6 6 5 4 5 5 4 4 4 4 6 5 5 6 6 6 6 7 7 7 8 9 8 9
6 6 5 6 7 1 2 3 4 6 8 10 12 11 10 10 9 8 8 7 7 7 7 7 6 6 5 5 5 5 5 5 6 6 6 6 5 5 6 6 6 7 7 7 8 8 9 9 9
6 6 4 5 3 3 2 3 4 5 6 7 10 11 11 10 9 8 8 7 7 7 6 5 5 5 5 5 4 4 5 5 6 7 6 7 7 6 5 6 6 8 7 8 8 8 9 9 9
4 6 6 6 5 3 4 1 5 6 6 6 7 9 9 9 8 7 7 6 6 6 6 5 5 4 4 4 3 3 4 6 5 5 7 7 7 7 7 7 8 9 9 9 8 9 9 8 9
3 3 5 5 3 2 3 2 5 7 8 9 10 10 10 9 8 7 7 6 6 6 5 5 4 4 4 3 3 4 5 5 6 6 7 7 6 7 7 8 9 9 9 9 9 9 9 9 10
4 2 3 5 5 3 2 1 3 8 10 11 11 11 10 9 9 8 7 7 6 6 5 4 4 4 4 4 5 4 5 5 6 7 7 8 8 8 9 9 9 9 9 10 10 10 9 9 10
5 4 4 4 5 6 3 3 5 5 7 9 11 10 9 9 9 9 8 7 7 6 5 5 4 5 5 5 5 5 6 6 7 7 8 8 8 8 9 10 10 10 11 10 10 11 11 11 11
5 3 4 5 3 4 6 1 7 5 6 7 7 8 8 9 9 9 9 8 7 6 5 5 4 5 5 5 5 6 6 7 8 8 8 8 9 9 10 10 11 11 11 11 11 12 12 12 12
Wind_Direction
175 187 211 232 239 227 81 62 20 16 39 45 47 38 46 38 10 62 111 141 139 141 139 147 145 144 139 134 131 131 133 139 142 141 143 145 146 146 146 145 142 139 129 116 108 104 103 104 106
176 184 216 237 258 206 96 45 18 16 51 88 80 71 73 68 55 94 132 139 145 142 144 150 143 145 141 137 134 132 132 133 137 139 141 143 146 147 147 148 147 146 138 128 120 114 112 112 113
172 208 248 250 261 342 35 23 14 22 97 116 92 62 57 63 86 108 132 146 146 141 143 139 148 148 146 143 139 136 135 135 137 140 143 145 147 149 151 152 154 154 149 139 132 126 123 124 125
188 216 234 250 245 42 353 352 353 111 106 98 118 96 83 48 47 114 138 147 144 145 148 140 152 150 150 148 146 143 141 141 143 145 147 151 153 157 160 164 168 165 157 150 146 143 140 141 141
233 250 244 236 208 41 360 353 333 105 93 103 117 105 87 54 82 122 141 149 150 150 146 143 153 152 153 153 152 150 149 150 151 153 156 159 163 169 174 179 186 184 176 170 169 169 164 167 171
229 246 253 244 126 54 38 21 59 90 101 106 113 109 86 92 105 124 140 153 152 150 146 139 152 155 157 157 157 156 157 159 161 163 166 170 174 181 188 192 199 207 204 194 193 193 189 192 197
266 263 266 271 265 103 47 26 56 92 98 83 99 108 112 113 113 124 134 147 148 148 142 149 158 160 162 163 164 164 167 169 172 176 180 184 190 199 208 210 217 225 227 219 216 215 209 208 211
282 268 250 238 242 98 57 41 54 76 87 79 71 120 130 128 127 125 131 142 146 148 150 154 161 162 170 170 168 171 174 178 183 188 192 199 207 211 215 221 213 227 236 239 235 231 226 220 220
256 253 247 250 286 54 47 39 77 93 107 85 61 72 110 127 133 136 141 146 151 156 156 164 161 164 177 177 163 178 181 187 198 197 199 218 228 222 211 227 198 230 240 245 247 246 239 232 221
244 257 304 348 321 328 353 347 85 153 128 109 101 102 120 133 143 149 153 157 160 163 165 162 169 160 181 181 164 194 193 180 212 211 207 222 241 264 269 142 221 245 251 247 243 251 249 241 234
246 282 327 314 317 313 297 92 198 195 125 115 130 135 139 141 151 156 157 159 159 168 173 169 167 171 189 184 190 191 199 178 209 216 229 239 261 261 269 256 223 232 236 243 226 233 247 246 247
256 276 294 304 319 297 275 148 117 56 64 93 129 140 143 150 152 155 155 160 163 174 174 177 166 179 192 205 205 213 218 203 228 214 257 246 240 254 267 278 278 269 263 263 263 250 250 256 250
246 282 307 307 302 296 202 143 111 88 86 102 123 137 145 146 146 146 149 154 161 172 173 165 168 171 181 190 234 232 253 258 260 298 259 262 255 253 250 262 271 275 275 269 265 264 265 264 259
303 288 283 289 317 159 161 129 119 94 102 108 119 131 137 141 144 143 150 155 162 164 158 150 160 163 178 192 207 230 250 292 298 276 271 261 259 263 261 253 260 268 269 278 278 273 270 266 261
268 258 211 159 167 158 178 140 104 109 122 119 119 123 121 126 137 146 150 153 154 151 147 148 159 159 166 194 205 187 198 208 297 315 300 298 285 272 267 262 257 269 275 267 264 270 266 262 260
237 238 207 129 174 169 238 156 116 137 142 131 131 130 130 126 130 132 137 143 146 143 140 145 151 141 149 162 182 178 72 33 343 318 323 352 343 306 284 277 273 285 272 268 267 266 275 274 275
216 258 319 129 140 194 239 128 128 150 157 143 144 140 138 134 130 131 138 141 143 140 140 141 138 140 142 143 153 144 96 24 326 345 16 23 345 328 299 302 320 279 272 271 275 281 283 280 280
326 313 299 105 103 223 217 135 137 157 170 159 153 144 142 142 142 137 134 133 139 136 135 137 140 134 146 154 156 160 164 189 244 29 51 344 312 319 309 284 306 292 282 278 279 285 273 280 279
305 299 316 65 72 238 192 156 152 154 173 174 163 153 147 146 145 145 148 151 149 144 145 151 148 144 167 172 190 190 192 215 215 200 91 304 330 337 306 305 300 281 284 293 290 285 273 267 275
269 276 281 119 135 237 158 150 149 165 176 181 169 161 156 160 158 158 165 168 166 162 163 169 175 173 193 169 211 254 286 259 256 274 142 300 324 315 298 316 292 289 290 273 278 276 286 286 272
266 299 330 147 152 169 189 173 173 178 182 188 183 174 172 177 173 172 180 183 180 178 184 186 184 190 203 199 214 209 222 241 231 245 243 294 306 303 309 297 296 303 286 283 289 282 269 279 279
305 31 197 180 211 148 245 217 165 178 189 193 189 187 182 187 186 184 186 190 192 193 193 196 197 202 204 215 234 250 271 286 300 292 298 293 283 293 294 289 289 289 293 296 277 276 282 272 273
44 138 189 207 237 204 206 271 130 174 191 190 189 191 188 189 190 193 195 195 198 199 199 197 199 205 208 223 229 247 267 284 286 288 282 284 282 276 280 283 287 285 283 293 295 293 278 274 272
143 167 183 215 231 217 48 295 116 159 183 179 183 187 189 191 192 196 199 199 202 201 201 202 199 206 209 220 232 253 277 289 295 291 295 285 284 279 276 278 280 278 284 287 279 279 270 269 277
214 249 240 214 209 76 100 281 75 122 161 175 178 180 186 189 193 195 199 200 201 203 202 201 195 203 210 219 235 251 271 277 272 283 290 290 292 289 293 294 288 285 283 279 278 272 276 273 268
229 288 324 332 356 70 153 6 97 134 157 179 184 182 186 191 193 196 196 195 192 186 183 187 191 200 207 220 236 256 268 275 285 293 299 295 294 301 312 293 282 281 279 278 274 274 267 264 264
219 268 335 294 283 293 93 116 146 165 182 189 190 191 193 191 187 186 179 176 170 170 172 176 182 199 217 233 243 255 268 285 294 290 274 283 291 290 289 287 283 280 276 274 274 270 272 270 265
312 301 251 296 327 329 109 156 120 172 187 188 193 196 193 187 183 173 165 163 159 161 160 172 192 214 233 239 253 264 271 274 277 282 295 294 290 287 287 284 283 280 275 270 267 270 262 262 262
185 209 264 294 319 310 339 70 95 170 186 194 196 197 193 188 179 170 165 160 162 167 173 188 202 220 234 251 260 272 276 283 283 281 283 286 286 286 282 283 283 281 278 274 268 267 271 265 264
263 260 244 280 283 280 298 50 125 178 192 201 203 190 187 182 173 168 165 168 176 185 195 204 219 232 245 258 262 265 274 280 282 285 289 288 285 283 284 284 282 281 280 277 272 268 269 266 264